Year,Month,Day,Hour,Minute,Value (Times are PST for windgust in km/hr)
2010,05,04,00,00,16.10
2010,05,04,00,01,22.50
2010,05,04,00,02,27.40
2010,05,04,00,03,16.10
2010,05,04,00,04,9.60
2010,05,04,00,05,20.90
2010,05,04,00,06,16.10
2010,05,04,00,07,22.50
2010,05,04,00,08,16.10
2010,05,04,00,09,32.20
2010,05,04,00,10,30.60
2010,05,04,00,11,33.80
2010,05,04,00,12,35.40
2010,05,04,00,13,32.20
2010,05,04,00,14,35.40
2010,05,04,00,15,30.60
2010,05,04,00,16,29.00
2010,05,04,00,17,14.50
2010,05,04,00,18,29.00
2010,05,04,00,19,27.40
2010,05,04,00,20,20.90
2010,05,04,00,21,17.70
2010,05,04,00,22,22.50
2010,05,04,00,23,19.30
2010,05,04,00,24,17.70
2010,05,04,00,25,20.90
2010,05,04,00,26,24.20
2010,05,04,00,27,20.90
2010,05,04,00,28,19.30
2010,05,04,00,29,24.20
2010,05,04,00,30,14.50
2010,05,04,00,31,14.50
2010,05,04,00,32,24.20
2010,05,04,00,33,25.70
2010,05,04,00,34,9.60
2010,05,04,00,35,8.10
2010,05,04,00,36,12.90
2010,05,04,00,37,12.90
2010,05,04,00,38,11.30
2010,05,04,00,39,11.30
2010,05,04,00,40,20.90
2010,05,04,00,41,12.90
2010,05,04,00,42,19.30
2010,05,04,00,43,22.50
2010,05,04,00,44,19.30
2010,05,04,00,45,17.70
2010,05,04,00,46,9.60
2010,05,04,00,47,16.10
2010,05,04,00,48,17.70
2010,05,04,00,49,9.60
2010,05,04,00,50,20.90
2010,05,04,00,51,9.60
2010,05,04,00,52,11.30
2010,05,04,00,53,19.30
2010,05,04,00,54,11.30
2010,05,04,00,55,9.60
2010,05,04,00,56,22.50
2010,05,04,00,57,17.70
2010,05,04,00,58,14.50
2010,05,04,00,59,19.30
2010,05,04,01,00,25.70
2010,05,04,01,01,20.90
2010,05,04,01,02,27.40
2010,05,04,01,03,29.00
2010,05,04,01,04,20.90
2010,05,04,01,05,19.30
2010,05,04,01,06,16.10
2010,05,04,01,07,20.90
2010,05,04,01,08,20.90
2010,05,04,01,09,22.50
2010,05,04,01,10,20.90
2010,05,04,01,11,19.30
2010,05,04,01,12,20.90
2010,05,04,01,13,19.30
2010,05,04,01,14,12.90
2010,05,04,01,15,12.90
2010,05,04,01,16,20.90
2010,05,04,01,17,20.90
2010,05,04,01,18,17.70
2010,05,04,01,19,19.30
2010,05,04,01,20,24.20
2010,05,04,01,21,19.30
2010,05,04,01,22,17.70
2010,05,04,01,23,19.30
2010,05,04,01,24,24.20
2010,05,04,01,25,22.50
2010,05,04,01,26,19.30
2010,05,04,01,27,12.90
2010,05,04,01,28,8.10
2010,05,04,01,29,14.50
2010,05,04,01,30,8.10
2010,05,04,01,31,11.30
2010,05,04,01,32,17.70
2010,05,04,01,33,19.30
2010,05,04,01,34,12.90
2010,05,04,01,35,30.60
2010,05,04,01,36,14.50
2010,05,04,01,37,12.90
2010,05,04,01,38,12.90
2010,05,04,01,39,20.90
2010,05,04,01,40,17.70
2010,05,04,01,41,9.60
2010,05,04,01,42,11.30
2010,05,04,01,43,14.50
2010,05,04,01,44,11.30
2010,05,04,01,45,22.50
2010,05,04,01,46,20.90
2010,05,04,01,47,16.10
2010,05,04,01,48,24.20
2010,05,04,01,49,25.70
2010,05,04,01,50,14.50
2010,05,04,01,51,17.70
2010,05,04,01,52,12.90
2010,05,04,01,53,12.90
2010,05,04,01,54,17.70
2010,05,04,01,55,29.00
2010,05,04,01,56,22.50
2010,05,04,01,57,20.90
2010,05,04,01,58,14.50
2010,05,04,01,59,9.60
2010,05,04,02,00,12.90
2010,05,04,02,01,25.70
2010,05,04,02,02,22.50
2010,05,04,02,03,27.40
2010,05,04,02,04,12.90
2010,05,04,02,05,19.30
2010,05,04,02,06,17.70
2010,05,04,02,07,25.70
2010,05,04,02,08,25.70
2010,05,04,02,09,22.50
2010,05,04,02,10,22.50
2010,05,04,02,11,24.20
2010,05,04,02,12,19.30
2010,05,04,02,13,17.70
2010,05,04,02,14,20.90
2010,05,04,02,15,16.10
2010,05,04,02,16,12.90
2010,05,04,02,17,9.60
2010,05,04,02,18,11.30
2010,05,04,02,19,14.50
2010,05,04,02,20,14.50
2010,05,04,02,21,6.40
2010,05,04,02,22,3.20
2010,05,04,02,23,3.20
2010,05,04,02,24,14.50
2010,05,04,02,25,3.20
2010,05,04,02,26,9.60
2010,05,04,02,27,9.60
2010,05,04,02,28,17.70
2010,05,04,02,29,9.60
2010,05,04,02,30,11.30
2010,05,04,02,31,8.10
2010,05,04,02,32,11.30
2010,05,04,02,33,14.50
2010,05,04,02,34,11.30
2010,05,04,02,35,9.60
2010,05,04,02,36,6.40
2010,05,04,02,37,9.60
2010,05,04,02,38,12.90
2010,05,04,02,39,9.60
2010,05,04,02,40,14.50
2010,05,04,02,41,8.10
2010,05,04,02,42,11.30
2010,05,04,02,43,9.60
2010,05,04,02,44,11.30
2010,05,04,02,45,14.50
2010,05,04,02,46,9.60
2010,05,04,02,47,12.90
2010,05,04,02,48,17.70
2010,05,04,02,49,8.10
2010,05,04,02,50,9.60
2010,05,04,02,51,3.20
2010,05,04,02,52,17.70
2010,05,04,02,53,19.30
2010,05,04,02,54,12.90
2010,05,04,02,55,11.30
2010,05,04,02,56,1.60
2010,05,04,02,57,11.30
2010,05,04,02,58,12.90
2010,05,04,02,59,12.90
2010,05,04,03,00,16.10
2010,05,04,03,01,9.60
2010,05,04,03,02,9.60
2010,05,04,03,03,9.60
2010,05,04,03,04,17.70
2010,05,04,03,05,12.90
2010,05,04,03,06,12.90
2010,05,04,03,07,16.10
2010,05,04,03,08,14.50
2010,05,04,03,09,14.50
2010,05,04,03,10,22.50
2010,05,04,03,11,33.80
2010,05,04,03,12,14.50
2010,05,04,03,13,19.30
2010,05,04,03,14,22.50
2010,05,04,03,15,19.30
2010,05,04,03,16,16.10
2010,05,04,03,17,19.30
2010,05,04,03,18,20.90
2010,05,04,03,19,14.50
2010,05,04,03,20,8.10
2010,05,04,03,21,12.90
2010,05,04,03,22,14.50
2010,05,04,03,23,19.30
2010,05,04,03,24,17.70
2010,05,04,03,25,17.70
2010,05,04,03,26,11.30
2010,05,04,03,27,9.60
2010,05,04,03,28,9.60
2010,05,04,03,29,12.90
2010,05,04,03,30,11.30
2010,05,04,03,31,11.30
2010,05,04,03,32,8.10
2010,05,04,03,33,8.10
2010,05,04,03,34,9.60
2010,05,04,03,35,3.20
2010,05,04,03,36,9.60
2010,05,04,03,37,16.10
2010,05,04,03,38,17.70
2010,05,04,03,39,20.90
2010,05,04,03,40,19.30
2010,05,04,03,41,9.60
2010,05,04,03,42,19.30
2010,05,04,03,43,12.90
2010,05,04,03,44,6.40
2010,05,04,03,45,11.30
2010,05,04,03,46,17.70
2010,05,04,03,47,14.50
2010,05,04,03,48,16.10
2010,05,04,03,49,14.50
2010,05,04,03,50,16.10
2010,05,04,03,51,12.90
2010,05,04,03,52,20.90
2010,05,04,03,53,24.20
2010,05,04,03,54,24.20
2010,05,04,03,55,19.30
2010,05,04,03,56,12.90
2010,05,04,03,57,20.90
2010,05,04,03,58,11.30
2010,05,04,03,59,11.30
2010,05,04,04,00,16.10
2010,05,04,04,01,9.60
2010,05,04,04,02,12.90
2010,05,04,04,03,12.90
2010,05,04,04,04,11.30
2010,05,04,04,05,11.30
2010,05,04,04,06,9.60
2010,05,04,04,07,9.60
2010,05,04,04,08,9.60
2010,05,04,04,09,6.40
2010,05,04,04,10,14.50
2010,05,04,04,11,11.30
2010,05,04,04,12,9.60
2010,05,04,04,13,8.10
2010,05,04,04,14,8.10
2010,05,04,04,15,9.60
2010,05,04,04,16,6.40
2010,05,04,04,17,16.10
2010,05,04,04,18,8.10
2010,05,04,04,19,12.90
2010,05,04,04,20,14.50
2010,05,04,04,21,17.70
2010,05,04,04,22,14.50
2010,05,04,04,23,17.70
2010,05,04,04,24,11.30
2010,05,04,04,25,11.30
2010,05,04,04,26,12.90
2010,05,04,04,27,9.60
2010,05,04,04,28,12.90
2010,05,04,04,29,9.60
2010,05,04,04,30,11.30
2010,05,04,04,31,9.60
2010,05,04,04,32,3.20
2010,05,04,04,33,6.40
2010,05,04,04,34,6.40
2010,05,04,04,35,6.40
2010,05,04,04,36,8.10
2010,05,04,04,37,6.40
2010,05,04,04,38,8.10
2010,05,04,04,39,8.10
2010,05,04,04,40,11.30
2010,05,04,04,41,12.90
2010,05,04,04,42,14.50
2010,05,04,04,43,11.30
2010,05,04,04,44,6.40
2010,05,04,04,45,3.20
2010,05,04,04,46,6.40
2010,05,04,04,47,1.60
2010,05,04,04,48,1.60
2010,05,04,04,49,1.60
2010,05,04,04,50,1.60
2010,05,04,04,51,1.60
2010,05,04,04,52,3.20
2010,05,04,04,53,3.20
2010,05,04,04,54,3.20
2010,05,04,04,55,4.80
2010,05,04,04,56,6.40
2010,05,04,04,57,3.20
2010,05,04,04,58,1.60
2010,05,04,05,00,1.60
2010,05,04,05,01,6.40
2010,05,04,05,02,3.20
2010,05,04,05,03,1.60
2010,05,04,05,04,1.60
2010,05,04,05,06,1.60
2010,05,04,05,07,3.20
2010,05,04,05,08,4.80
2010,05,04,05,09,3.20
2010,05,04,05,10,3.20
2010,05,04,05,11,1.60
2010,05,04,05,12,4.80
2010,05,04,05,13,1.60
2010,05,04,05,14,3.20
2010,05,04,05,15,6.40
2010,05,04,05,16,3.20
2010,05,04,05,17,3.20
2010,05,04,05,18,4.80
2010,05,04,05,19,1.60
2010,05,04,05,20,4.80
2010,05,04,05,21,3.20
2010,05,04,05,23,8.10
2010,05,04,05,24,3.20
2010,05,04,05,25,4.80
2010,05,04,05,26,6.40
2010,05,04,05,27,9.60
2010,05,04,05,28,16.10
2010,05,04,05,29,11.30
2010,05,04,05,30,8.10
2010,05,04,05,31,3.20
2010,05,04,05,32,12.90
2010,05,04,05,33,8.10
2010,05,04,05,34,9.60
2010,05,04,05,35,9.60
2010,05,04,05,36,12.90
2010,05,04,05,37,8.10
2010,05,04,05,38,6.40
2010,05,04,05,39,3.20
2010,05,04,05,40,6.40
2010,05,04,05,42,1.60
2010,05,04,05,43,6.40
2010,05,04,05,44,4.80
2010,05,04,05,45,6.40
2010,05,04,05,46,1.60
2010,05,04,05,47,6.40
2010,05,04,05,48,6.40
2010,05,04,05,49,6.40
2010,05,04,05,50,3.20
2010,05,04,05,51,6.40
2010,05,04,05,52,6.40
2010,05,04,05,53,6.40
2010,05,04,05,54,8.10
2010,05,04,05,55,1.60
2010,05,04,05,56,6.40
2010,05,04,05,57,6.40
2010,05,04,05,58,3.20
2010,05,04,05,59,6.40
2010,05,04,06,00,3.20
2010,05,04,06,01,6.40
2010,05,04,06,02,8.10
2010,05,04,06,03,6.40
2010,05,04,06,04,6.40
2010,05,04,06,05,6.40
2010,05,04,06,06,8.10
2010,05,04,06,07,3.20
2010,05,04,06,08,6.40
2010,05,04,06,09,3.20
2010,05,04,06,10,1.60
2010,05,04,06,11,1.60
2010,05,04,06,12,6.40
2010,05,04,06,13,6.40
2010,05,04,06,14,8.10
2010,05,04,06,15,6.40
2010,05,04,06,16,3.20
2010,05,04,06,17,6.40
2010,05,04,06,18,3.20
2010,05,04,06,19,6.40
2010,05,04,06,20,8.10
2010,05,04,06,21,3.20
2010,05,04,06,22,1.60
2010,05,04,06,23,6.40
2010,05,04,06,24,1.60
2010,05,04,06,25,3.20
2010,05,04,06,26,6.40
2010,05,04,06,27,6.40
2010,05,04,06,28,6.40
2010,05,04,06,29,3.20
2010,05,04,06,30,6.40
2010,05,04,06,31,3.20
2010,05,04,06,32,3.20
2010,05,04,06,33,3.20
2010,05,04,06,34,3.20
2010,05,04,06,35,1.60
2010,05,04,06,36,3.20
2010,05,04,06,37,1.60
2010,05,04,06,38,3.20
2010,05,04,06,39,3.20
2010,05,04,06,40,3.20
2010,05,04,06,41,3.20
2010,05,04,06,42,6.40
2010,05,04,06,43,6.40
2010,05,04,06,44,6.40
2010,05,04,06,45,3.20
2010,05,04,06,46,6.40
2010,05,04,06,47,8.10
2010,05,04,06,48,9.60
2010,05,04,06,49,8.10
2010,05,04,06,50,8.10
2010,05,04,06,51,6.40
2010,05,04,06,52,8.10
2010,05,04,06,53,8.10
2010,05,04,06,54,8.10
2010,05,04,06,55,8.10
2010,05,04,06,56,8.10
2010,05,04,06,57,8.10
2010,05,04,06,58,6.40
2010,05,04,06,59,6.40
2010,05,04,07,00,6.40
2010,05,04,07,01,6.40
2010,05,04,07,02,8.10
2010,05,04,07,03,6.40
2010,05,04,07,04,6.40
2010,05,04,07,05,3.20
2010,05,04,07,06,6.40
2010,05,04,07,07,3.20
2010,05,04,07,08,6.40
2010,05,04,07,09,6.40
2010,05,04,07,10,1.60
2010,05,04,07,11,1.60
2010,05,04,07,12,1.60
2010,05,04,07,13,1.60
2010,05,04,07,14,3.20
2010,05,04,07,15,6.40
2010,05,04,07,16,6.40
2010,05,04,07,17,1.60
2010,05,04,07,18,1.60
2010,05,04,07,19,1.60
2010,05,04,07,21,1.60
2010,05,04,07,22,1.60
2010,05,04,07,25,1.60
2010,05,04,07,29,1.60
2010,05,04,07,30,3.20
2010,05,04,07,31,1.60
2010,05,04,07,32,6.40
2010,05,04,07,33,3.20
2010,05,04,07,34,3.20
2010,05,04,07,35,8.10
2010,05,04,07,36,6.40
2010,05,04,07,37,12.90
2010,05,04,07,38,19.30
2010,05,04,07,39,11.30
2010,05,04,07,40,12.90
2010,05,04,07,41,12.90
2010,05,04,07,42,9.60
2010,05,04,07,43,17.70
2010,05,04,07,44,16.10
2010,05,04,07,45,16.10
2010,05,04,07,46,9.60
2010,05,04,07,47,14.50
2010,05,04,07,48,22.50
2010,05,04,07,49,16.10
2010,05,04,07,50,12.90
2010,05,04,07,51,12.90
2010,05,04,07,52,11.30
2010,05,04,07,53,9.60
2010,05,04,07,54,8.10
2010,05,04,07,55,8.10
2010,05,04,07,56,8.10
2010,05,04,07,57,3.20
2010,05,04,07,58,6.40
2010,05,04,07,59,6.40
2010,05,04,08,00,9.60
2010,05,04,08,01,3.20
2010,05,04,08,02,1.60
2010,05,04,08,03,3.20
2010,05,04,08,04,1.60
2010,05,04,08,05,6.40
2010,05,04,08,06,6.40
2010,05,04,08,07,6.40
2010,05,04,08,08,3.20
2010,05,04,08,09,3.20
2010,05,04,08,10,1.60
2010,05,04,08,11,6.40
2010,05,04,08,12,6.40
2010,05,04,08,13,3.20
2010,05,04,08,14,1.60
2010,05,04,08,15,8.10
2010,05,04,08,16,6.40
2010,05,04,08,17,3.20
2010,05,04,08,18,3.20
2010,05,04,08,20,8.10
2010,05,04,08,21,6.40
2010,05,04,08,22,6.40
2010,05,04,08,23,6.40
2010,05,04,08,24,3.20
2010,05,04,08,25,6.40
2010,05,04,08,26,3.20
2010,05,04,08,27,9.60
2010,05,04,08,28,1.60
2010,05,04,08,29,6.40
2010,05,04,08,30,1.60
2010,05,04,08,31,6.40
2010,05,04,08,32,1.60
2010,05,04,08,33,3.20
2010,05,04,08,34,1.60
2010,05,04,08,35,1.60
2010,05,04,08,36,1.60
2010,05,04,08,37,6.40
2010,05,04,08,38,6.40
2010,05,04,08,39,6.40
2010,05,04,08,40,8.10
2010,05,04,08,41,8.10
2010,05,04,08,42,6.40
2010,05,04,08,43,3.20
2010,05,04,08,44,8.10
2010,05,04,08,45,9.60
2010,05,04,08,46,3.20
2010,05,04,08,47,3.20
2010,05,04,08,48,1.60
2010,05,04,08,49,1.60
2010,05,04,08,50,6.40
2010,05,04,08,51,1.60
2010,05,04,08,52,1.60
2010,05,04,08,53,6.40
2010,05,04,08,54,8.10
2010,05,04,08,55,1.60
2010,05,04,08,56,1.60
2010,05,04,08,57,9.60
2010,05,04,08,58,11.30
2010,05,04,08,59,8.10
2010,05,04,09,00,3.20
2010,05,04,09,01,4.80
2010,05,04,09,02,4.80
2010,05,04,09,03,4.80
2010,05,04,09,04,8.10
2010,05,04,09,05,8.10
2010,05,04,09,06,8.10
2010,05,04,09,07,3.20
2010,05,04,09,08,4.80
2010,05,04,09,09,9.60
2010,05,04,09,10,6.40
2010,05,04,09,11,6.40
2010,05,04,09,12,6.40
2010,05,04,09,13,6.40
2010,05,04,09,14,4.80
2010,05,04,09,15,8.10
2010,05,04,09,16,9.60
2010,05,04,09,17,9.60
2010,05,04,09,18,6.40
2010,05,04,09,19,11.30
2010,05,04,09,20,6.40
2010,05,04,09,21,6.40
2010,05,04,09,22,9.60
2010,05,04,09,23,11.30
2010,05,04,09,24,9.60
2010,05,04,09,25,6.40
2010,05,04,09,26,6.40
2010,05,04,09,27,11.30
2010,05,04,09,28,9.60
2010,05,04,09,29,9.60
2010,05,04,09,30,6.40
2010,05,04,09,31,9.60
2010,05,04,09,32,8.10
2010,05,04,09,33,6.40
2010,05,04,09,34,9.60
2010,05,04,09,35,8.10
2010,05,04,09,36,6.40
2010,05,04,09,37,9.60
2010,05,04,09,38,4.80
2010,05,04,09,39,6.40
2010,05,04,09,40,4.80
2010,05,04,09,41,9.60
2010,05,04,09,42,8.10
2010,05,04,09,43,3.20
2010,05,04,09,44,6.40
2010,05,04,09,45,4.80
2010,05,04,09,46,3.20
2010,05,04,09,47,4.80
2010,05,04,09,48,3.20
2010,05,04,09,49,8.10
2010,05,04,09,50,4.80
2010,05,04,09,51,6.40
2010,05,04,09,52,8.10
2010,05,04,09,53,11.30
2010,05,04,09,54,11.30
2010,05,04,09,55,8.10
2010,05,04,09,56,11.30
2010,05,04,09,57,20.90
2010,05,04,09,58,19.30
2010,05,04,09,59,19.30
2010,05,04,10,00,14.50
2010,05,04,10,01,19.30
2010,05,04,10,02,14.50
2010,05,04,10,03,12.90
2010,05,04,10,04,12.90
2010,05,04,10,05,8.10
2010,05,04,10,06,6.40
2010,05,04,10,07,6.40
2010,05,04,10,08,9.60
2010,05,04,10,09,8.10
2010,05,04,10,10,9.60
2010,05,04,10,11,8.10
2010,05,04,10,12,6.40
2010,05,04,10,13,3.20
2010,05,04,10,14,3.20
2010,05,04,10,15,1.60
2010,05,04,10,16,1.60
2010,05,04,10,17,1.60
2010,05,04,10,18,1.60
2010,05,04,10,19,3.20
2010,05,04,10,20,8.10
2010,05,04,10,21,6.40
2010,05,04,10,22,6.40
2010,05,04,10,23,6.40
2010,05,04,10,24,6.40
2010,05,04,10,25,3.20
2010,05,04,10,26,3.20
2010,05,04,10,27,4.80
2010,05,04,10,28,4.80
2010,05,04,10,29,1.60
2010,05,04,10,31,1.60
2010,05,04,10,32,4.80
2010,05,04,10,33,1.60
2010,05,04,10,34,1.60
2010,05,04,10,35,1.60
2010,05,04,10,36,1.60
2010,05,04,10,39,3.20
2010,05,04,10,40,3.20
2010,05,04,10,41,3.20
2010,05,04,10,43,1.60
2010,05,04,10,44,1.60
2010,05,04,10,45,1.60
2010,05,04,10,46,3.20
2010,05,04,10,47,3.20
2010,05,04,10,48,3.20
2010,05,04,10,49,1.60
2010,05,04,10,50,1.60
2010,05,04,10,52,4.80
2010,05,04,10,53,6.40
2010,05,04,10,54,3.20
2010,05,04,10,55,4.80
2010,05,04,10,56,4.80
2010,05,04,10,57,1.60
2010,05,04,10,58,1.60
2010,05,04,10,59,3.20
2010,05,04,11,00,4.80
2010,05,04,11,02,1.60
2010,05,04,11,03,1.60
2010,05,04,11,05,1.60
2010,05,04,11,06,3.20
2010,05,04,11,07,4.80
2010,05,04,11,08,6.40
2010,05,04,11,09,8.10
2010,05,04,11,10,4.80
2010,05,04,11,12,4.80
2010,05,04,11,13,3.20
2010,05,04,11,14,6.40
2010,05,04,11,15,6.40
2010,05,04,11,16,8.10
2010,05,04,11,17,6.40
2010,05,04,11,18,3.20
2010,05,04,11,19,8.10
2010,05,04,11,20,6.40
2010,05,04,11,21,8.10
2010,05,04,11,22,11.30
2010,05,04,11,23,9.60
2010,05,04,11,24,8.10
2010,05,04,11,25,4.80
2010,05,04,11,26,6.40
2010,05,04,11,27,4.80
2010,05,04,11,28,8.10
2010,05,04,11,29,4.80
2010,05,04,11,30,4.80
2010,05,04,11,31,6.40
2010,05,04,11,32,4.80
2010,05,04,11,33,6.40
2010,05,04,11,34,11.30
2010,05,04,11,35,9.60
2010,05,04,11,36,9.60
2010,05,04,11,37,19.30
2010,05,04,11,38,11.30
2010,05,04,11,39,12.90
2010,05,04,11,40,12.90
2010,05,04,11,41,8.10
2010,05,04,11,42,12.90
2010,05,04,11,43,9.60
2010,05,04,11,44,8.10
2010,05,04,11,45,11.30
2010,05,04,11,46,9.60
2010,05,04,11,47,11.30
2010,05,04,11,48,9.60
2010,05,04,11,49,16.10
2010,05,04,11,50,12.90
2010,05,04,11,51,14.50
2010,05,04,11,52,20.90
2010,05,04,11,53,16.10
2010,05,04,11,54,17.70
2010,05,04,11,55,17.70
2010,05,04,11,56,17.70
2010,05,04,11,57,16.10
2010,05,04,11,58,17.70
2010,05,04,11,59,19.30
2010,05,04,12,00,12.90
2010,05,04,12,01,11.30
2010,05,04,12,02,9.60
2010,05,04,12,03,16.10
2010,05,04,12,04,14.50
2010,05,04,12,05,9.60
2010,05,04,12,06,20.90
2010,05,04,12,07,9.60
2010,05,04,12,08,9.60
2010,05,04,12,09,12.90
2010,05,04,12,10,17.70
2010,05,04,12,11,16.10
2010,05,04,12,12,11.30
2010,05,04,12,13,19.30
2010,05,04,12,14,17.70
2010,05,04,12,15,11.30
2010,05,04,12,16,14.50
2010,05,04,12,17,16.10
2010,05,04,12,18,17.70
2010,05,04,12,19,12.90
2010,05,04,12,20,12.90
2010,05,04,12,21,22.50
2010,05,04,12,22,12.90
2010,05,04,12,23,12.90
2010,05,04,12,24,16.10
2010,05,04,12,25,17.70
2010,05,04,12,26,22.50
2010,05,04,12,27,19.30
2010,05,04,12,28,14.50
2010,05,04,12,29,8.10
2010,05,04,12,30,16.10
2010,05,04,12,31,12.90
2010,05,04,12,32,12.90
2010,05,04,12,33,12.90
2010,05,04,12,34,9.60
2010,05,04,12,35,12.90
2010,05,04,12,36,17.70
2010,05,04,12,37,12.90
2010,05,04,12,38,14.50
2010,05,04,12,39,11.30
2010,05,04,12,40,9.60
2010,05,04,12,41,14.50
2010,05,04,12,42,12.90
2010,05,04,12,43,8.10
2010,05,04,12,44,17.70
2010,05,04,12,45,17.70
2010,05,04,12,46,9.60
2010,05,04,12,47,16.10
2010,05,04,12,48,11.30
2010,05,04,12,49,19.30
2010,05,04,12,50,16.10
2010,05,04,12,51,9.60
2010,05,04,12,52,17.70
2010,05,04,12,53,14.50
2010,05,04,12,54,12.90
2010,05,04,12,55,9.60
2010,05,04,12,56,8.10
2010,05,04,12,57,17.70
2010,05,04,12,58,14.50
2010,05,04,12,59,17.70
2010,05,04,13,00,16.10
2010,05,04,13,01,9.60
2010,05,04,13,02,17.70
2010,05,04,13,03,9.60
2010,05,04,13,04,19.30
2010,05,04,13,05,17.70
2010,05,04,13,06,9.60
2010,05,04,13,07,19.30
2010,05,04,13,08,16.10
2010,05,04,13,09,16.10
2010,05,04,13,10,3.20
2010,05,04,13,11,11.30
2010,05,04,13,12,17.70
2010,05,04,13,13,16.10
2010,05,04,13,14,17.70
2010,05,04,13,15,17.70
2010,05,04,13,16,12.90
2010,05,04,13,17,12.90
2010,05,04,13,18,14.50
2010,05,04,13,19,12.90
2010,05,04,13,20,22.50
2010,05,04,13,21,22.50
2010,05,04,13,22,17.70
2010,05,04,13,23,16.10
2010,05,04,13,24,19.30
2010,05,04,13,25,14.50
2010,05,04,13,26,16.10
2010,05,04,13,27,12.90
2010,05,04,13,28,17.70
2010,05,04,13,29,20.90
2010,05,04,13,30,19.30
2010,05,04,13,31,22.50
2010,05,04,13,32,12.90
2010,05,04,13,33,16.10
2010,05,04,13,34,22.50
2010,05,04,13,35,22.50
2010,05,04,13,36,24.20
2010,05,04,13,37,20.90
2010,05,04,13,38,19.30
2010,05,04,13,39,8.10
2010,05,04,13,40,14.50
2010,05,04,13,41,22.50
2010,05,04,13,42,14.50
2010,05,04,13,43,17.70
2010,05,04,13,44,22.50
2010,05,04,13,45,11.30
2010,05,04,13,46,22.50
2010,05,04,13,47,19.30
2010,05,04,13,48,17.70
2010,05,04,13,49,24.20
2010,05,04,13,50,25.70
2010,05,04,13,51,22.50
2010,05,04,13,52,20.90
2010,05,04,13,53,14.50
2010,05,04,13,54,22.50
2010,05,04,13,55,17.70
2010,05,04,13,56,12.90
2010,05,04,13,57,16.10
2010,05,04,13,58,14.50
2010,05,04,13,59,27.40
2010,05,04,14,00,17.70
2010,05,04,14,01,17.70
2010,05,04,14,02,19.30
2010,05,04,14,03,20.90
2010,05,04,14,04,19.30
2010,05,04,14,05,19.30
2010,05,04,14,06,14.50
2010,05,04,14,07,22.50
2010,05,04,14,08,17.70
2010,05,04,14,09,16.10
2010,05,04,14,10,8.10
2010,05,04,14,11,24.20
2010,05,04,14,12,22.50
2010,05,04,14,13,16.10
2010,05,04,14,14,20.90
2010,05,04,14,15,17.70
2010,05,04,14,16,17.70
2010,05,04,14,17,9.60
2010,05,04,14,18,20.90
2010,05,04,14,19,14.50
2010,05,04,14,20,16.10
2010,05,04,14,21,22.50
2010,05,04,14,22,19.30
2010,05,04,14,23,22.50
2010,05,04,14,24,9.60
2010,05,04,14,25,12.90
2010,05,04,14,26,20.90
2010,05,04,14,27,19.30
2010,05,04,14,28,11.30
2010,05,04,14,29,20.90
2010,05,04,14,30,19.30
2010,05,04,14,31,17.70
2010,05,04,14,32,11.30
2010,05,04,14,33,11.30
2010,05,04,14,34,16.10
2010,05,04,14,35,17.70
2010,05,04,14,36,11.30
2010,05,04,14,37,8.10
2010,05,04,14,38,6.40
2010,05,04,14,39,14.50
2010,05,04,14,40,9.60
2010,05,04,14,41,8.10
2010,05,04,14,42,6.40
2010,05,04,14,43,19.30
2010,05,04,14,44,20.90
2010,05,04,14,45,17.70
2010,05,04,14,46,12.90
2010,05,04,14,47,14.50
2010,05,04,14,48,20.90
2010,05,04,14,49,17.70
2010,05,04,14,50,19.30
2010,05,04,14,51,19.30
2010,05,04,14,52,12.90
2010,05,04,14,53,16.10
2010,05,04,14,54,8.10
2010,05,04,14,55,17.70
2010,05,04,14,56,11.30
2010,05,04,14,57,16.10
2010,05,04,14,58,14.50
2010,05,04,14,59,9.60
2010,05,04,15,00,11.30
2010,05,04,15,01,17.70
2010,05,04,15,02,6.40
2010,05,04,15,03,14.50
2010,05,04,15,04,8.10
2010,05,04,15,05,11.30
2010,05,04,15,06,12.90
2010,05,04,15,07,11.30
2010,05,04,15,08,9.60
2010,05,04,15,09,9.60
2010,05,04,15,10,9.60
2010,05,04,15,11,9.60
2010,05,04,15,12,12.90
2010,05,04,15,13,11.30
2010,05,04,15,14,12.90
2010,05,04,15,15,9.60
2010,05,04,15,16,9.60
2010,05,04,15,17,12.90
2010,05,04,15,18,8.10
2010,05,04,15,19,11.30
2010,05,04,15,20,12.90
2010,05,04,15,21,12.90
2010,05,04,15,22,9.60
2010,05,04,15,23,9.60
2010,05,04,15,24,12.90
2010,05,04,15,25,12.90
2010,05,04,15,26,12.90
2010,05,04,15,27,9.60
2010,05,04,15,28,14.50
2010,05,04,15,29,9.60
2010,05,04,15,30,16.10
2010,05,04,15,31,20.90
2010,05,04,15,32,17.70
2010,05,04,15,33,8.10
2010,05,04,15,34,17.70
2010,05,04,15,35,11.30
2010,05,04,15,36,8.10
2010,05,04,15,37,14.50
2010,05,04,15,38,12.90
2010,05,04,15,39,17.70
2010,05,04,15,40,14.50
2010,05,04,15,41,9.60
2010,05,04,15,42,9.60
2010,05,04,15,43,11.30
2010,05,04,15,44,8.10
2010,05,04,15,45,19.30
2010,05,04,15,46,9.60
2010,05,04,15,47,11.30
2010,05,04,15,48,19.30
2010,05,04,15,49,9.60
2010,05,04,15,50,12.90
2010,05,04,15,51,9.60
2010,05,04,15,52,12.90
2010,05,04,15,53,14.50
2010,05,04,15,54,11.30
2010,05,04,15,55,6.40
2010,05,04,15,56,8.10
2010,05,04,15,57,11.30
2010,05,04,15,58,12.90
2010,05,04,15,59,11.30
2010,05,04,16,00,12.90
2010,05,04,16,01,9.60
2010,05,04,16,02,12.90
2010,05,04,16,03,12.90
2010,05,04,16,04,6.40
2010,05,04,16,05,4.80
2010,05,04,16,06,8.10
2010,05,04,16,07,4.80
2010,05,04,16,08,9.60
2010,05,04,16,09,11.30
2010,05,04,16,10,11.30
2010,05,04,16,11,9.60
2010,05,04,16,12,11.30
2010,05,04,16,13,8.10
2010,05,04,16,14,9.60
2010,05,04,16,15,12.90
2010,05,04,16,16,9.60
2010,05,04,16,17,12.90
2010,05,04,16,18,9.60
2010,05,04,16,19,12.90
2010,05,04,16,20,6.40
2010,05,04,16,21,14.50
2010,05,04,16,22,11.30
2010,05,04,16,23,14.50
2010,05,04,16,24,16.10
2010,05,04,16,25,12.90
2010,05,04,16,26,11.30
2010,05,04,16,27,9.60
2010,05,04,16,28,8.10
2010,05,04,16,29,16.10
2010,05,04,16,30,12.90
2010,05,04,16,31,12.90
2010,05,04,16,32,11.30
2010,05,04,16,33,16.10
2010,05,04,16,34,16.10
2010,05,04,16,35,12.90
2010,05,04,16,36,8.10
2010,05,04,16,37,12.90
2010,05,04,16,38,11.30
2010,05,04,16,39,12.90
2010,05,04,16,40,8.10
2010,05,04,16,41,12.90
2010,05,04,16,42,9.60
2010,05,04,16,43,9.60
2010,05,04,16,44,11.30
2010,05,04,16,45,19.30
2010,05,04,16,46,9.60
2010,05,04,16,47,9.60
2010,05,04,16,48,19.30
2010,05,04,16,49,16.10
2010,05,04,16,50,11.30
2010,05,04,16,51,16.10
2010,05,04,16,52,19.30
2010,05,04,16,53,17.70
2010,05,04,16,54,17.70
2010,05,04,16,55,9.60
2010,05,04,16,56,9.60
2010,05,04,16,57,14.50
2010,05,04,16,58,16.10
2010,05,04,16,59,12.90
2010,05,04,17,00,16.10
2010,05,04,17,01,12.90
2010,05,04,17,02,12.90
2010,05,04,17,03,17.70
2010,05,04,17,04,12.90
2010,05,04,17,05,8.10
2010,05,04,17,06,8.10
2010,05,04,17,07,8.10
2010,05,04,17,08,11.30
2010,05,04,17,09,8.10
2010,05,04,17,10,14.50
2010,05,04,17,11,12.90
2010,05,04,17,12,8.10
2010,05,04,17,13,12.90
2010,05,04,17,14,16.10
2010,05,04,17,15,20.90
2010,05,04,17,16,12.90
2010,05,04,17,17,11.30
2010,05,04,17,18,9.60
2010,05,04,17,19,11.30
2010,05,04,17,20,14.50
2010,05,04,17,21,12.90
2010,05,04,17,22,11.30
2010,05,04,17,23,9.60
2010,05,04,17,24,4.80
2010,05,04,17,25,17.70
2010,05,04,17,26,9.60
2010,05,04,17,27,6.40
2010,05,04,17,28,11.30
2010,05,04,17,29,9.60
2010,05,04,17,30,12.90
2010,05,04,17,31,12.90
2010,05,04,17,32,11.30
2010,05,04,17,33,9.60
2010,05,04,17,34,8.10
2010,05,04,17,35,14.50
2010,05,04,17,36,11.30
2010,05,04,17,37,9.60
2010,05,04,17,38,12.90
2010,05,04,17,39,12.90
2010,05,04,17,40,11.30
2010,05,04,17,41,11.30
2010,05,04,17,42,11.30
2010,05,04,17,43,16.10
2010,05,04,17,44,11.30
2010,05,04,17,45,8.10
2010,05,04,17,46,8.10
2010,05,04,17,47,11.30
2010,05,04,17,48,9.60
2010,05,04,17,49,8.10
2010,05,04,17,50,16.10
2010,05,04,17,51,9.60
2010,05,04,17,52,11.30
2010,05,04,17,53,8.10
2010,05,04,17,54,8.10
2010,05,04,17,55,11.30
2010,05,04,17,56,11.30
2010,05,04,17,57,11.30
2010,05,04,17,58,12.90
2010,05,04,17,59,9.60
2010,05,04,18,00,17.70
2010,05,04,18,01,17.70